This demonstration page uses our WeatherBlox Daily Observations layout. Learn more.

Left ArrowRight Arrow

47.50024, -111.30081

Hourly Observations for January 7, 2016

Temp ( °F °C ) Dew Point ( °F °C ) Humidity (%) Winds ( mph kmh ) Pressure ( in mb ) Visibility ( mi km ) Precip ( " mm )
12:53 am 00:53 Cloudy with Mist and Fog 15 -9.4 12 -11.1 88 88 NNW 6 9 30.02 1017 5 8 0.00 0.00
1:53 am 01:53 Cloudy with Mist and Fog 14 -10 11 -11.7 88 88 NW 6 9 30.03 1017 4 6 0.00 0.00
2:16 am 02:16 Cloudy with Mist and Fog 14 -10 12 -11 92 92 NNW 5 7 30.12 1020 2 3 0.00 0.00
2:27 am 02:27 Cloudy with Mist and Fog 15 -9.4 13 -10.6 91 91 NNW 3 6 30.12 1020 2 2 0.00 0.00
2:34 am 02:34 Cloudy with Mist and Fog 16 -9 12 -11 86 86 Calm 30.12 1020 1 2 0.00 0.00
2:53 am 02:53 Cloudy with Mist and Fog 15 -9.4 13 -10.6 91 91 Calm 30.05 1018 1 2 0.00 0.00
3:53 am 03:53 Cloudy with Mist and Fog 15 -9.4 14 -10 95 95 WSW 5 7 30.07 1018 1 2 0.00 0.00
4:31 am 04:31 Cloudy with Mist and Fog 16 -8.9 14 -10 92 92 WSW 6 9 30.15 1021 2 2 0.00 0.00
4:53 am 04:53 Cloudy with Mist and Fog 16 -8.9 14 -10 92 92 WSW 6 9 30.08 1019 2 3 0.00 0.00
5:42 am 05:42 Cloudy with Mist and Fog 16 -9 14 -10 93 93 WSW 7 11 30.15 1021 3 4 0.00 0.00
5:53 am 05:53 Cloudy with Mist and Fog 16 -8.9 14 -10 92 92 WSW 7 11 30.09 1019 3 4 0.00 0.00
6:06 am 06:06 Cloudy with Light Snow 16 -8.9 14 -10 92 92 W 8 13 30.18 1022 2 3 0.00 0.03
6:19 am 06:19 Cloudy with Light Snow 16 -8.9 14 -10 92 92 WNW 9 15 30.18 1022 2 3 0.00 0.03
6:50 am 06:50 Cloudy with Light Snow 16 -9 12 -11 86 86 WNW 8 13 30.18 1022 2 3 0.00 0.00
6:53 am 06:53 Cloudy with Light Snow 15 -9.4 12 -11.1 88 88 WNW 8 13 30.11 1020 2 3 0.01 0.25
7:43 am 07:43 Cloudy with Mist and Fog 14 -10 12 -11.1 92 92 NW 8 13 30.21 1023 5 8 0.00 0.03
7:53 am 07:53 Cloudy with Mist and Fog 14 -10 12 -11.1 92 92 NW 7 11 30.13 1020 4 6 0.00 0.03
8:05 am 08:05 Cloudy with Mist and Fog 14 -10 12 -11.1 92 92 NW 8 13 30.21 1023 3 4 0.00 0.00
8:37 am 08:37 Cloudy with Mist and Fog 14 -10 12 -11.1 92 92 WNW 9 15 30.21 1023 4 6 0.00 0.00
8:53 am 08:53 Cloudy with Light Snow 14 -10 12 -11.1 92 92 WNW 8 13 30.15 1021 2 3 0.00 0.03
9:53 am 09:53 Cloudy with Light Snow 15 -9.4 12 -11.1 88 88 WNW 8 13 30.17 1022 2 3 0.01 0.25
10:28 am 10:28 Cloudy with Light Snow 16 -9 12 -11 86 86 WNW 8 13 30.21 1023 1 2 0.00 0.00
10:53 am 10:53 Cloudy with Light Snow 15 -9.4 12 -11.1 88 88 W 8 13 30.19 1022 1 2 0.02 0.51
11:04 am 11:04 Cloudy with Light Snow 16 -9 10 -12 79 79 NW 9 15 30.21 1023 1 2 0.00 0.00
11:14 am 11:14 Cloudy with Light Snow 16 -9 10 -12 79 79 WNW 7 11 30.21 1023 2 3 0.00 0.00
11:53 am 11:53 Cloudy with Light Snow 16 -8.9 11 -11.7 80 80 WNW 12 19 30.19 1022 2 3 0.00 0.03
12:25 pm 12:25 Cloudy with Light Snow 16 -8.9 11 -11.7 80 80 NW 8 13 30.21 1023 2 3 0.00 0.03
12:43 pm 12:43 Cloudy with Light Snow 16 -8.9 12 -11.1 84 84 WNW 8 13 30.21 1023 1 2 0.01 0.25
12:53 pm 12:53 Mostly Cloudy with Light Snow 16 -8.9 12 -11.1 84 84 NW 9 15 30.18 1022 1 2 0.01 0.25
1:32 pm 13:32 Mostly Cloudy with Light Snow 16 -9 12 -11 86 86 WNW 13 20 30.21 1023 1 1 0.00 0.00
1:53 pm 13:53 Cloudy with Light Snow 16 -8.9 11 -11.7 80 80 NW 12 19 30.19 1023 1 1 0.00 0.03
2:17 pm 14:17 Cloudy with Light Snow 16 -8.9 11 -11.7 80 80 NNW 7 11 30.24 1024 2 2 0.00 0.03
2:25 pm 14:25 Mostly Cloudy with Light Snow 16 -8.9 12 -11.1 84 84 NNW 6 9 30.24 1024 1 2 0.00 0.03
2:34 pm 14:34 Mostly Cloudy with Light Snow 16 -9 12 -11 86 86 NNW 6 9 30.24 1024 1 1 0.00 0.00
2:53 pm 14:53 Cloudy with Light Snow 16 -8.9 12 -11.1 84 84 WNW 6 9 30.20 1023 1 2 0.01 0.25
3:15 pm 15:15 Mostly Cloudy with Light Snow 16 -8.9 12 -11.1 84 84 NW 8 13 30.24 1024 1 1 0.00 0.03
3:24 pm 15:24 Cloudy with Light Snow 16 -9 12 -11 86 86 WNW 8 13 30.24 1024 1 2 0.00 0.00
3:50 pm 15:50 Mostly Cloudy with Light Snow 16 -9 12 -11 86 86 NW 9 15 30.27 1025 1 1 0.00 0.00
3:53 pm 15:53 Mostly Cloudy with Light Snow 16 -8.9 12 -11.1 84 84 NNW 8 13 30.22 1024 1 1 0.01 0.25
4:53 pm 16:53 Mostly Cloudy with Light Snow 15 -9.4 12 -11.1 88 88 NW 3 6 30.24 1024 1 1 0.01 0.25
5:40 pm 17:40 Cloudy with Light Snow 16 -9 12 -11 86 86 NNW 5 7 30.27 1025 1 2 0.00 0.00
5:53 pm 17:53 Cloudy with Light Snow 14 -10 12 -11.1 92 92 NNW 3 6 30.26 1025 1 2 0.03 0.76
6:18 pm 18:18 Cloudy with Light Snow 14 -10 10 -12 85 85 WNW 6 9 30.33 1027 3 4 0.00 0.00
6:29 pm 18:29 Cloudy with Light Snow 14 -10 11 -11.7 88 88 NW 7 11 30.33 1027 2 2 0.00 0.03
6:53 pm 18:53 Cloudy with Light Snow 14 -10 11 -11.7 88 88 W 7 11 30.27 1025 2 3 0.01 0.25
7:53 pm 19:53 Cloudy with Light Snow 12 -11.1 9 -12.8 87 87 WNW 6 9 30.28 1026 5 8 0.00 0.03
8:03 pm 20:03 Cloudy with Light Snow 12 -11 10 -12 92 92 WNW 6 9 30.36 1028 2 3 0.00 0.00
8:15 pm 20:15 Cloudy with Light Snow 13 -10.6 10 -12.2 88 88 WNW 8 13 30.36 1028 2 3 0.01 0.25
8:28 pm 20:28 Cloudy with Light Snow 12 -11 10 -12 92 92 WNW 7 11 30.36 1028 2 2 0.00 0.00
8:53 pm 20:53 Cloudy with Light Snow 13 -10.6 10 -12.2 88 88 NW 10 17 30.28 1026 2 3 0.02 0.51
9:00 pm 21:00 Cloudy with Light Snow 12 -11 10 -12 92 92 NW 9 15 30.36 1028 2 3 0.00 0.00
9:14 pm 21:14 Cloudy with Light Snow 12 -11 10 -12 92 92 NW 8 13 30.36 1028 2 3 0.00 0.00
9:41 pm 21:41 Cloudy with Mist and Fog 11 -11.7 9 -12.8 92 92 NW 7 11 30.36 1028 5 8 0.00 0.03
9:53 pm 21:53 Cloudy with Light Snow 11 -11.7 8 -13.3 88 88 NW 7 11 30.29 1026 4 6 0.00 0.03
10:53 pm 22:53 Cloudy 9 -12.8 6 -14.4 88 88 WNW 5 7 30.31 1026 7 11 0.00 0.03
11:53 pm 23:53 Cloudy with Light Snow 9 -12.8 7 -13.9 92 92 W 3 6 30.30 1026 4 6 0.00 0.03

Powered by AerisWeather